TimeEDT,TemperatureF,Dew PointF,Humidity,Sea Level PressureIn,VisibilityMPH,Wind Direction,Wind SpeedMPH,Gust SpeedMPH,PrecipitationIn,Events,Conditions,WindDirDegrees,DateUTC
12:15 AM,66.4,66.2,99,30.02,1.8,Calm,Calm,-,N/A,,Mist,0,2013-09-09 04:15:00
12:35 AM,65.8,65.7,99,30.03,1.2,Calm,Calm,-,N/A,,Scattered Clouds,0,2013-09-09 04:35:00
12:55 AM,65.7,65.5,99,30.03,1.5,Calm,Calm,-,N/A,,Scattered Clouds,0,2013-09-09 04:55:00
1:15 AM,65.3,64.9,99,30.03,1.2,Calm,Calm,-,N/A,,Mist,0,2013-09-09 05:15:00
1:35 AM,64.6,64.4,99,30.03,1.2,Calm,Calm,-,N/A,,Mist,0,2013-09-09 05:35:00
1:55 AM,64.8,64.6,99,30.04,1.8,Calm,Calm,-,N/A,,Mist,0,2013-09-09 05:55:00
2:15 AM,64.8,64.6,99,30.04,1.0,Calm,Calm,-,N/A,,Mist,0,2013-09-09 06:15:00
2:35 AM,64.6,64.4,99,30.04,1.8,Calm,Calm,-,N/A,,Mist,0,2013-09-09 06:35:00
2:55 AM,64.4,64.0,99,30.04,1.5,Calm,Calm,-,N/A,,Scattered Clouds,0,2013-09-09 06:55:00
3:15 AM,63.5,63.5,100,30.03,1.8,Calm,Calm,-,N/A,,Mist,0,2013-09-09 07:15:00
3:35 AM,64.2,63.9,99,30.04,1.5,Calm,Calm,-,N/A,,Mist,0,2013-09-09 07:35:00
3:55 AM,64.4,64.4,100,30.05,1.2,Calm,Calm,-,N/A,,Mist,0,2013-09-09 07:55:00
4:15 AM,63.1,63.0,99,30.05,1.0,Calm,Calm,-,N/A,,Mist,0,2013-09-09 08:15:00
4:35 AM,63.0,63.0,100,30.06,1.2,Calm,Calm,-,N/A,,Mostly Cloudy,0,2013-09-09 08:35:00
4:55 AM,62.6,62.6,100,30.06,1.2,Calm,Calm,-,N/A,,Scattered Clouds,0,2013-09-09 08:55:00
5:15 AM,62.6,62.6,100,30.07,0.8,Calm,Calm,-,N/A,,Mist,0,2013-09-09 09:15:00
5:35 AM,61.7,61.7,100,30.07,1.5,Calm,Calm,-,N/A,,Mist,0,2013-09-09 09:35:00
5:55 AM,61.7,61.7,100,30.08,0.8,Calm,Calm,-,N/A,,Mist,0,2013-09-09 09:55:00
6:15 AM,61.9,61.9,100,30.08,1.8,Calm,Calm,-,N/A,,Mist,0,2013-09-09 10:15:00
6:35 AM,65.1,65.1,100,30.09,2.5,Calm,Calm,-,N/A,,Clear,0,2013-09-09 10:35:00
6:55 AM,66.2,66.2,100,30.10,2.5,Calm,Calm,-,N/A,,Clear,0,2013-09-09 10:55:00
7:15 AM,66.6,66.6,100,30.11,1.8,North,3.5,-,N/A,,Mist,360,2013-09-09 11:15:00
7:35 AM,67.1,66.9,99,30.12,1.8,Calm,Calm,-,N/A,,Mist,0,2013-09-09 11:35:00
7:55 AM,67.5,67.3,99,30.12,1.8,Calm,Calm,-,N/A,,Mist,0,2013-09-09 11:55:00
8:15 AM,68.7,68.4,99,30.13,2.5,Calm,Calm,-,N/A,,Clear,0,2013-09-09 12:15:00
8:35 AM,69.8,68.9,97,30.13,3.0,NE,3.5,-,N/A,,Clear,40,2013-09-09 12:35:00
8:55 AM,70.9,68.5,92,30.14,4.0,NNE,5.8,-,N/A,,Scattered Clouds,20,2013-09-09 12:55:00
9:15 AM,70.9,68.4,92,30.14,4.0,NNE,3.5,-,N/A,,Scattered Clouds,30,2013-09-09 13:15:00
9:35 AM,72.1,68.9,89,30.15,4.0,NE,5.8,-,N/A,,Mostly Cloudy,40,2013-09-09 13:35:00
9:55 AM,73.4,69.1,86,30.16,5.0,North,4.6,-,N/A,,Overcast,10,2013-09-09 13:55:00
10:15 AM,73.4,68.7,85,30.16,5.0,NNE,5.8,-,N/A,,Overcast,20,2013-09-09 14:15:00
10:35 AM,74.3,68.7,83,30.17,5.0,NE,4.6,-,N/A,,Haze,40,2013-09-09 14:35:00
10:55 AM,74.8,68.9,82,30.17,5.0,NNE,5.8,-,N/A,,Haze,20,2013-09-09 14:55:00
11:15 AM,75.6,68.7,79,30.17,4.0,ENE,3.5,-,N/A,,Haze,60,2013-09-09 15:15:00
11:35 AM,77.0,69.1,76,30.17,5.0,North,4.6,-,N/A,,Haze,10,2013-09-09 15:35:00
11:55 AM,76.1,69.1,79,30.18,5.0,North,4.6,-,N/A,,Haze,360,2013-09-09 15:55:00
12:15 PM,77.2,68.7,75,30.17,5.0,North,3.5,-,N/A,,Haze,10,2013-09-09 16:15:00
12:35 PM,78.6,68.5,71,30.17,4.0,NNE,3.5,-,N/A,,Haze,30,2013-09-09 16:35:00
12:55 PM,79.5,68.7,69,30.17,5.0,NE,3.5,-,N/A,,Haze,40,2013-09-09 16:55:00
1:15 PM,79.9,69.1,69,30.17,5.0,Calm,Calm,-,N/A,,Haze,0,2013-09-09 17:15:00
1:35 PM,80.6,69.1,68,30.16,5.0,NNE,4.6,-,N/A,,Haze,30,2013-09-09 17:35:00
1:55 PM,80.1,68.7,68,30.16,5.0,NE,3.5,-,N/A,,Haze,40,2013-09-09 17:55:00
2:15 PM,82.0,68.9,64,30.16,5.0,Calm,Calm,-,N/A,,Haze,0,2013-09-09 18:15:00
2:35 PM,81.7,68.9,65,30.15,4.0,NNE,4.6,-,N/A,,Haze,30,2013-09-09 18:35:00
2:55 PM,82.6,69.3,64,30.15,5.0,ENE,4.6,-,N/A,,Haze,70,2013-09-09 18:55:00
3:15 PM,81.1,69.1,67,30.14,5.0,North,3.5,-,N/A,,Haze,350,2013-09-09 19:15:00
3:35 PM,82.6,69.1,64,30.14,5.0,Calm,Calm,-,N/A,,Haze,0,2013-09-09 19:35:00
3:55 PM,82.4,69.6,65,30.14,4.0,Calm,Calm,-,N/A,,Haze,0,2013-09-09 19:55:00
4:15 PM,82.2,69.8,66,30.14,4.0,North,4.6,-,N/A,,Haze,10,2013-09-09 20:15:00
4:35 PM,83.1,70.0,64,30.13,5.0,NE,4.6,-,N/A,,Haze,40,2013-09-09 20:35:00
4:55 PM,83.1,69.8,64,30.13,5.0,Calm,Calm,-,N/A,,Haze,0,2013-09-09 20:55:00
5:15 PM,82.6,69.1,64,30.13,4.0,NE,3.5,-,N/A,,Haze,50,2013-09-09 21:15:00
5:35 PM,82.6,70.7,67,30.12,5.0,Calm,Calm,-,N/A,,Haze,0,2013-09-09 21:35:00
5:55 PM,82.0,70.2,67,30.12,4.0,Calm,Calm,-,N/A,,Haze,0,2013-09-09 21:55:00
6:15 PM,81.9,71.1,70,30.12,5.0,Calm,Calm,-,N/A,,Haze,0,2013-09-09 22:15:00
6:35 PM,81.1,71.1,71,30.12,5.0,Calm,Calm,-,N/A,,Haze,0,2013-09-09 22:35:00
6:55 PM,79.5,71.6,77,30.13,5.0,Calm,Calm,-,N/A,,Haze,0,2013-09-09 22:55:00
7:15 PM,76.5,72.1,86,30.13,4.0,Calm,Calm,-,N/A,,Haze,0,2013-09-09 23:15:00
7:35 PM,74.7,71.4,90,30.13,4.0,Calm,Calm,-,N/A,,Clear,0,2013-09-09 23:35:00
7:55 PM,72.7,70.7,93,30.14,4.0,Calm,Calm,-,N/A,,Clear,0,2013-09-09 23:55:00
8:15 PM,71.2,69.8,95,30.14,3.0,Calm,Calm,-,N/A,,Clear,0,2013-09-10 00:15:00
8:35 PM,70.2,69.3,97,30.14,3.0,Calm,Calm,-,N/A,,Clear,0,2013-09-10 00:35:00
8:55 PM,69.6,68.9,98,30.15,2.5,Calm,Calm,-,N/A,,Clear,0,2013-09-10 00:55:00
9:15 PM,69.1,68.4,98,30.15,2.0,Calm,Calm,-,N/A,,Clear,0,2013-09-10 01:15:00
9:35 PM,68.7,68.2,98,30.16,1.5,Calm,Calm,-,N/A,,Mist,0,2013-09-10 01:35:00
9:55 PM,68.4,67.6,98,30.16,1.8,Calm,Calm,-,N/A,,Mist,0,2013-09-10 01:55:00
10:15 PM,68.2,67.6,98,30.16,1.0,Calm,Calm,-,N/A,,Mist,0,2013-09-10 02:15:00
10:35 PM,67.6,67.1,98,30.16,1.2,Calm,Calm,-,N/A,,Mist,0,2013-09-10 02:35:00
10:55 PM,67.3,66.9,99,30.17,0.8,Calm,Calm,-,N/A,,Mist,0,2013-09-10 02:55:00
11:15 PM,66.6,66.4,99,30.18,1.0,Calm,Calm,-,N/A,,Mist,0,2013-09-10 03:15:00
11:35 PM,66.0,65.7,99,30.18,1.0,Calm,Calm,-,N/A,,Mist,0,2013-09-10 03:35:00
11:55 PM,65.8,65.5,99,30.18,1.0,Calm,Calm,-,N/A,,Mist,0,2013-09-10 03:55:00